Weather reports worldwide

Advertisment
Wainfleet, United Kingdom (3392): temperature & dewpoint: 15.01.2020 17:00:00 - 21.01.2020 17:00:00 (GMT)Wainfleet, United Kingdom (3392): temperature -20cm & temperature -100cm: 15.01.2020 17:00:00 - 21.01.2020 17:00:00 (GMT)Wainfleet, United Kingdom (3392): wind speed & gusts: 15.01.2020 17:00:00 - 21.01.2020 17:00:00 (GMT)Wainfleet, United Kingdom (3392): wind direction: 15.01.2020 17:00:00 - 21.01.2020 17:00:00 (GMT)Wainfleet, United Kingdom (3392): reduced air pressure: 15.01.2020 17:00:00 - 21.01.2020 17:00:00 (GMT)Wainfleet, United Kingdom (3392): visibility: 15.01.2020 17:00:00 - 21.01.2020 17:00:00 (GMT)Wainfleet, United Kingdom (3392): precipitation: 15.01.2020 17:00:00 - 21.01.2020 17:00:00 (GMT)
Date & Time tt [°C] td [°C] tt -20cm [°C] tt -100cm [°C] ff [km/h] ff [kn] fx [km/h] fx [kn] dd ppp [hPa] vv [km] rr [mm]
21.01.2020 17:00:00 3,0 2,6 - - 13 7 - - SW 1038,8 4,7 0,0
21.01.2020 16:00:00 5,1 3,8 - - 8 4 - - SSW 1038,8 9 0,0
21.01.2020 15:00:00 6,8 4,4 - - 9 5 - - WSW 1039,3 20 0,0
21.01.2020 14:00:00 6,5 4,4 - - 13 7 - - WSW 1039,7 18 0,0
21.01.2020 13:00:00 4,8 3,4 - - 11 6 - - WSW 1040,3 10 0,0
21.01.2020 12:00:00 3,6 2,5 - - 11 6 - - WSW 1040,9 8 0,0
21.01.2020 11:00:00 2,4 1,9 - - 8 4 - - WSW 1041,7 7 0,2
21.01.2020 10:00:00 0,5 0,3 - - 8 4 - - SW 1041,7 2,4 0,0
21.01.2020 09:00:00 -0,1 -0,1 5,7 7,5 11 6 - - WSW 1041,2 3,9 0,0
21.01.2020 08:00:00 -0,6 -0,6 - - 8 4 - - W 1041,4 2,4 0,0
21.01.2020 07:00:00 -0,8 -0,8 - - 9 5 - - W 1041,1 2,0 0,0
21.01.2020 06:00:00 -0,4 -0,4 - - 11 6 - - W 1041,0 1,9 0,0
21.01.2020 05:00:00 -0,9 -0,9 - - 11 6 - - WSW 1041,3 2,4 0,0
21.01.2020 04:00:00 -0,6 -0,6 - - 13 7 - - WSW 1041,7 2,7 0,0
21.01.2020 03:00:00 -0,4 -0,4 - - 8 4 - - SSW 1041,9 3,3 0,0
21.01.2020 02:00:00 -0,2 -0,2 - - 9 5 - - WSW 1041,8 3,6 0,0
21.01.2020 01:00:00 -0,2 -0,2 - - 8 4 - - SW 1042,6 3,8 0,0
21.01.2020 00:00:00 -0,2 -0,3 - - 8 4 - - WNW 1043,0 4,0 0,0
20.01.2020 23:00:00 0,3 0,3 - - 11 6 - - SW 1043,3 5 0,0
20.01.2020 22:00:00 -0,1 -0,2 - - 11 6 - - SW 1043,8 4,4 0,0
20.01.2020 21:00:00 0,6 0,5 - - 11 6 - - SW 1044,1 5 0,0
20.01.2020 20:00:00 1,6 1,2 - - 9 5 - - WSW 1044,2 9 0,0
20.01.2020 19:00:00 2,7 2,1 - - 16 9 - - WSW 1044,2 12 0,0
20.01.2020 18:00:00 3,0 2,5 - - 16 9 - - SW 1044,2 15 0,0
20.01.2020 17:00:00 3,7 2,6 - - 16 9 - - WSW 1044,3 28 0,0
20.01.2020 16:00:00 5,7 3,6 - - 15 8 - - WSW 1044,6 40 0,0
20.01.2020 15:00:00 7,1 4,4 - - 13 7 - - WSW 1044,9 40 0,0
20.01.2020 14:00:00 7,0 4,0 - - 18 10 - - W 1045,0 45 0,0
20.01.2020 13:00:00 6,3 4,3 - - 15 8 - - W 1045,9 30 0,0
20.01.2020 12:00:00 5,0 3,3 - - 13 7 - - W 1046,8 24 0,0
20.01.2020 11:00:00 3,1 2,2 - - 13 7 - - WSW 1047,3 15 0,0
20.01.2020 10:00:00 1,7 1,1 - - 13 7 - - SSW 1047,6 8 0,0
20.01.2020 09:00:00 0,7 0,5 5,9 7,7 13 7 - - SW 1047,4 9 0,0
20.01.2020 08:00:00 0,3 0,0 - - 13 7 - - SSW 1047,3 10 0,0
20.01.2020 07:00:00 0,2 -0,3 - - 11 6 - - WSW 1047,1 8 0,0
20.01.2020 06:00:00 0,4 -0,1 - - 11 6 - - W 1047,1 7 0,0
20.01.2020 05:00:00 1,4 0,7 - - 13 7 - - W 1046,8 10 0,0
20.01.2020 04:00:00 1,6 1,3 - - 9 5 - - WSW 1047,3 7 0,0
20.01.2020 03:00:00 1,0 0,6 - - 8 4 - - SW 1047,8 4,7 0,0
20.01.2020 02:00:00 0,8 0,2 - - 11 6 - - WSW 1048,2 8 0,0
20.01.2020 01:00:00 1,6 1,0 - - 13 7 - - SW 1048,0 10 0,0
20.01.2020 00:00:00 2,4 1,8 - - 11 6 - - SW 1048,0 12 0,0
19.01.2020 23:00:00 1,7 1,1 - - 11 6 - - WSW 1047,6 11 0,0
19.01.2020 22:00:00 1,5 0,8 - - 15 8 - - SW 1047,7 14 0,0
19.01.2020 21:00:00 2,1 0,7 - - 13 7 - - W 1047,6 20 0,0
19.01.2020 20:00:00 1,5 0,6 - - 11 6 - - SW 1047,2 19 0,0
19.01.2020 19:00:00 2,3 0,5 - - 15 8 - - WSW 1047,1 22 0,0
19.01.2020 18:00:00 1,3 0,7 - - 13 7 - - SW 1047,3 22 0,0
19.01.2020 17:00:00 2,4 1,5 - - 9 5 - - WSW 1046,8 10 0,0
19.01.2020 16:00:00 4,4 1,7 - - 9 5 - - WSW 1046,2 9 0,0
19.01.2020 15:00:00 6,1 2,9 - - 9 5 - - W 1045,5 30 0,0
19.01.2020 14:00:00 6,7 3,2 - - 9 5 - - W 1045,1 40 0,0
19.01.2020 13:00:00 6,9 3,0 - - 5 3 - - WNW 1045,1 40 0,0
19.01.2020 12:00:00 6,0 2,2 - - 9 5 - - NW 1045,0 40 0,0
19.01.2020 11:00:00 4,0 1,3 - - 13 7 - - WNW 1044,9 45 0,0
19.01.2020 10:00:00 1,1 0,0 - - 11 6 - - W 1044,1 45 0,0
19.01.2020 09:00:00 0,4 -0,9 6,5 7,7 13 7 - - W 1043,3 40 0,0
19.01.2020 08:00:00 0,4 -1,3 - - 9 5 - - NW 1042,3 35 0,0
19.01.2020 07:00:00 -0,1 -1,2 - - 9 5 - - NW 1041,2 40 0,0
19.01.2020 06:00:00 -0,3 -1,3 - - 9 5 - - WNW 1040,3 30 0,0
19.01.2020 05:00:00 0,0 -0,8 - - 15 8 - - W 1039,3 40 0,0
19.01.2020 04:00:00 0,2 -0,6 - - 11 6 - - W 1038,8 45 0,0
19.01.2020 03:00:00 0,7 -0,3 - - 15 8 - - WNW 1038,3 45 0,0
19.01.2020 02:00:00 0,1 -0,6 - - 13 7 - - WNW 1037,6 40 0,0
19.01.2020 01:00:00 0,3 -0,5 - - 11 6 - - WNW 1036,7 40 0,0
19.01.2020 00:00:00 1,0 -0,3 - - 13 7 - - NW 1035,6 35 0,0
18.01.2020 23:00:00 0,5 -0,2 - - 15 8 - - WNW 1034,4 19 0,0
18.01.2020 22:00:00 0,7 -0,5 - - 13 7 - - WNW 1033,5 27 0,0
18.01.2020 21:00:00 1,2 0,3 - - 13 7 - - WNW 1033,0 30 0,0
18.01.2020 20:00:00 1,8 0,6 - - 15 8 - - WNW 1032,1 30 0,0
18.01.2020 19:00:00 2,1 0,9 - - 15 8 - - W 1031,2 30 0,0
18.01.2020 18:00:00 3,1 1,5 - - 16 9 - - W 1030,1 40 0,0
18.01.2020 17:00:00 4,0 1,9 - - 16 9 - - W 1029,2 35 0,0
18.01.2020 16:00:00 5,5 2,3 - - 18 10 - - WNW 1028,3 50 0,0
18.01.2020 15:00:00 7,0 2,6 - - 21 11 - - WNW 1027,4 60 0,0
18.01.2020 14:00:00 7,1 2,3 - - 28 15 - - WNW 1026,7 50 0,0
18.01.2020 13:00:00 6,8 3,1 - - 26 14 - - WNW 1026,3 45 0,0
18.01.2020 12:00:00 5,7 3,2 - - 24 13 - - WNW 1025,8 30 0,0
18.01.2020 11:00:00 4,2 2,5 - - 28 15 - - W 1025,4 29 0,0
18.01.2020 10:00:00 3,1 1,8 - - 22 12 - - W 1024,6 28 0,0
18.01.2020 09:00:00 2,0 1,0 7,0 7,9 21 11 - - W 1023,6 26 0,0
18.01.2020 08:00:00 1,6 0,8 - - 24 13 - - W 1022,6 26 0,0
18.01.2020 07:00:00 1,6 0,7 - - 21 11 - - W 1021,8 26 0,0
18.01.2020 06:00:00 1,9 1,1 - - 21 11 - - W 1020,7 29 0,0
18.01.2020 05:00:00 2,2 1,3 - - 21 11 - - W 1020,0 30 0,0
18.01.2020 04:00:00 2,8 1,8 - - 26 14 - - W 1019,3 26 0,0
18.01.2020 03:00:00 3,0 2,0 - - 28 15 - - W 1018,7 30 0,0
18.01.2020 02:00:00 3,4 2,1 - - 22 12 - - W 1018,3 40 0,0
18.01.2020 01:00:00 3,8 2,5 - - 26 14 - - W 1017,4 65 0,0
18.01.2020 00:00:00 3,7 2,3 - - 26 14 - - W 1016,6 55 0,0
17.01.2020 23:00:00 3,5 2,2 - - 24 13 - - WSW 1015,6 50 0,0
17.01.2020 22:00:00 3,8 2,2 - - 26 14 - - WSW 1015,5 60 0,0
17.01.2020 21:00:00 3,6 2,5 - - 22 12 - - WSW 1014,7 40 0,0
17.01.2020 20:00:00 3,8 2,6 - - 24 13 - - SW 1014,3 50 0,0
17.01.2020 19:00:00 3,9 2,8 - - 22 12 - - SW 1013,7 50 0,0
17.01.2020 18:00:00 4,5 2,9 - - 22 12 - - SW 1013,2 65 0,0
17.01.2020 17:00:00 5,1 2,9 - - 22 12 - - WSW 1012,3 75 0,0
17.01.2020 16:00:00 5,5 3,3 - - 22 12 - - W 1011,1 75 0,2
17.01.2020 15:00:00 5,1 3,7 - - 29 16 59 32 WNW 1009,6 6 0,2
17.01.2020 14:00:00 5,9 4,9 - - 39 21 54 29 WNW 1007,6 40 0,4
17.01.2020 13:00:00 9,0 6,4 - - 29 16 46 25 SW 1006,7 75 0,0
17.01.2020 12:00:00 9,0 7,4 - - 31 17 - - SW 1006,7 50 0,0
17.01.2020 11:00:00 8,4 7,1 - - 26 14 - - SSW 1006,7 55 0,0
17.01.2020 10:00:00 8,0 6,7 - - 26 14 - - SSW 1006,4 75 0,0
17.01.2020 09:00:00 8,1 7,4 7,2 7,9 22 12 - - S 1006,4 40 0,2
17.01.2020 08:00:00 8,5 8,2 - - 22 12 - - S 1006,4 10 0,4
17.01.2020 07:00:00 8,3 8,0 - - 21 11 - - S 1006,4 21 0,0
17.01.2020 06:00:00 8,4 8,1 - - 22 12 - - S 1006,7 19 0,0
17.01.2020 05:00:00 8,0 7,7 - - 16 9 - - S 1006,7 14 0,0
17.01.2020 04:00:00 8,3 7,8 - - 16 9 - - S 1007,2 17 0,0
17.01.2020 03:00:00 8,5 8,0 - - 18 10 - - S 1007,3 19 0,0
17.01.2020 02:00:00 9,0 8,3 - - 22 12 - - SSW 1007,4 23 0,0
17.01.2020 01:00:00 9,3 8,6 - - 28 15 - - S 1007,5 30 0,0
17.01.2020 00:00:00 9,4 8,7 - - 29 16 - - SSW 1007,6 30 0,0
16.01.2020 23:00:00 9,3 8,6 - - 31 17 - - S 1007,0 28 0,0
16.01.2020 22:00:00 9,4 8,7 - - 31 17 - - S 1007,0 23 0,4
16.01.2020 21:00:00 9,6 8,4 - - 37 20 55 30 S 1006,9 17 0,2
16.01.2020 20:00:00 10,1 7,5 - - 41 22 61 33 S 1006,5 35 0,0
16.01.2020 19:00:00 10,0 7,3 - - 48 26 63 34 S 1006,3 30 0,0
16.01.2020 18:00:00 9,6 7,1 - - 48 26 65 35 S 1006,6 30 0,0
16.01.2020 17:00:00 9,8 7,1 - - 48 26 63 34 S 1007,2 35 0,0
16.01.2020 16:00:00 9,1 7,2 - - 44 24 57 31 S 1008,1 35 0,0
16.01.2020 15:00:00 8,9 6,9 - - 37 20 50 27 SSE 1009,1 40 0,0
16.01.2020 14:00:00 8,6 6,4 - - 37 20 46 25 S 1010,8 40 0,0
16.01.2020 13:00:00 8,3 6,5 - - 37 20 50 27 S 1011,5 30 0,0
16.01.2020 12:00:00 7,9 6,1 - - 37 20 52 28 S 1013,4 30 0,0
16.01.2020 11:00:00 7,7 6,2 - - 35 19 46 25 S 1015,2 30 0,0
16.01.2020 10:00:00 6,9 5,7 - - 31 17 - - S 1016,2 25 0,0
16.01.2020 09:00:00 6,6 5,2 7,2 7,9 31 17 - - S 1016,1 27 0,0
16.01.2020 08:00:00 6,3 5,0 - - 31 17 - - S 1016,4 27 0,0
16.01.2020 07:00:00 6,1 5,2 - - 28 15 - - S 1016,6 22 0,0
16.01.2020 06:00:00 5,7 5,0 - - 29 16 - - S 1017,1 19 0,0
16.01.2020 05:00:00 5,2 4,5 - - 24 13 - - S 1017,3 21 0,0
16.01.2020 04:00:00 5,3 4,3 - - 28 15 - - SSW 1017,8 26 0,0
16.01.2020 03:00:00 5,1 3,9 - - 28 15 - - SSW 1017,1 28 0,0
16.01.2020 02:00:00 5,3 3,9 - - 35 19 - - SSW 1016,5 28 0,0
16.01.2020 01:00:00 5,3 3,8 - - 26 14 - - SSW 1016,2 27 0,0
16.01.2020 00:00:00 5,6 3,7 - - 29 16 - - SSW 1015,4 30 0,0
15.01.2020 23:00:00 5,8 3,8 - - 31 17 - - SSW 1014,7 30 0,0
15.01.2020 22:00:00 6,0 4,1 - - 34 18 - - SSW 1013,6 30 0,0
15.01.2020 21:00:00 5,9 4,2 - - 31 17 - - SSW 1013,3 35 0,0
15.01.2020 20:00:00 5,8 3,9 - - 31 17 - - SSW 1012,1 35 0,0
15.01.2020 19:00:00 5,6 3,8 - - 29 16 - - SW 1010,9 40 0,0
15.01.2020 18:00:00 6,2 3,9 - - 28 15 - - SW 1009,7 55 0,0
15.01.2020 17:00:00 6,6 4,1 - - 31 17 - - SW 1008,5 60 0,0

tt = temperature
td = dewpoint
tt -20cm = temperature -20cm
tt -100cm = temperature -100cm
ff = wind speed
fx = gusts
dd = wind direction
ppp = reduced air pressure
vv = visibility
rr = precipitation

Next stations